Погода в Санта-Барбаре

Венесуэла     8°59′28″N   71°53′55″W
темп.,
°C
ветер,
м/с
пор.,
м/с
влажн.,
%
обл.,
%
осадки,
мм/ч
давл.,
гПа
погр.,
м
30 ноября, вт
вт3023:00+24с1186100 0.4 101013
02:00+23зюз229455 0.9 101040
05:00+22юз339898 0.6 101089
08:00+24юз2395100 0.6 1012161
11:00+29зюз327018 0.0 1012837
14:00+32з225534 0.0 10081607
17:00+30св3570100 0.2 1006424
20:00+25в228723 0.4 100912
1 декабря, ср
ср123:00+23ююз0195100 3.9 101112
02:00+23ююз1197100 7.3 101019
05:00+22юз2298100 5.6 101081
08:00+23з229684 9.9 1013198
11:00+27зсз228197 0.4 1014675
14:00+29ссз1265100 0.5 10101161
17:00+29всв127097 0.1 1009205
20:00+26св2285100 0.3 101123
2 декабря, чт
чт223:00+24ссв119181 1.1 101311
02:00+22юз239770 3.4 101168
05:00+22юз23989 1.2 101168
08:00+23ююз22938 1.2 1012133
11:00+28зюз117733 1.1 1013545
14:00+31сз226145 1.1 10091318
17:00+29ссв347524 0.9 1008357
20:00+24св2390100 1.5 101037
3 декабря, пт
пт323:00+24ссз119098 0.2 101111
02:00+23зюз239660 1.9 101051
05:00+22юз2397100 0.5 100961
08:00+23зюз239595 0.5 1011158
11:00+28з227656 0.0 1011791
14:00+30зсз226451 0.1 10081265
17:00+29св227289 0.5 1006304
20:00+25вюв22856 0.8 100821
4 декабря, сб
сб423:00+23ююв1195100 3.3 101011
02:00+22ююв1298100 7.6 100930
05:00+22юз2298100 0.9 101058
08:00+23зюз229512 0.9 1012142
11:00+28зсз2276100 1.1 1012664
14:00+31ссз2261100 1.4 10081303
17:00+29св237239 0.6 1007198
20:00+25в11885 0.8 100912